weather.gov     
National Weather Service

Terminal Aerodrome Forecast
NWS Homepage
This page is being discontinued on March 12, 2014.
The same data is available at this site. Please update your bookmarks.
Thank you, and we apologize for the inconvenience.
Please send an email to SR-SRH.Webmaster@noaa.gov with any concerns.


Current Version
Previous Version:    01  02  03  04  05  06  07  08  09  10  11  12  13  14  15  16  17  18  19  20  21  22  23  24  25  
[Printable]
364
FTUS44 KOUN 281120
TAFWWR
TAF
KWWR 281120Z 2812/2912 06008KT P6SM VCTS BKN070CB
     FM281700 11010KT P6SM SCT070 BKN250
     FM290600 12007KT P6SM BKN050 OVC100 PROB30 2906/2910 4SM TSRA
      OVC040CB=


364
FTUS44 KOUN 281120
TAFWWR
TAF
KWWR 281120Z 2812/2912 06008KT P6SM VCTS BKN070CB
     FM281700 11010KT P6SM SCT070 BKN250
     FM290600 12007KT P6SM BKN050 OVC100 PROB30 2906/2910 4SM TSRA
      OVC040CB=




U.S. Dept. of Commerce
NOAA National Weather Service
1325 East West Highway
Silver Spring, MD 20910
E-mail: w-nws.webmaster@noaa.gov
Page last modified: May 16, 2007
NATIONAL WEATHER SERVICE: for Safety, for Work, for Fun - FOR LIFE